When you browse on this site, cookies collect data to enhance your experience and personalize the content and advertising you see.
Visit our Privacy Policy to learn more. By continuing to use the site, you agree to this use of cookies and data.
  • In Deutschland
  • Länderverzeichnis
  • Für 7 Tage
  • Wassertemperatur
  • Satellitenkarten
  • Wetterkarte
  • Widgets
  • user-avatar
    Anmelden

    Stündliche Wetter Bad Füssing

    Heute, 11 Dezember, Dienstag

    Zeit Temperatur Niederschläge Wind Luftdruck Luftfeuchtigkeit
    00:00 0°C° 0.1 mm 5 m/S 734 mmHg 86%
    01:00 -1°C° 0 mm 4 m/S 734 mmHg 85%
    02:00 -1°C° 0.2 mm 5 m/S 734 mmHg 85%
    03:00 -1°C° 0.2 mm 5 m/S 734 mmHg 85%
    04:00 -1°C° 0.2 mm 6 m/S 734 mmHg 85%
    05:00 -1°C° 0.2 mm 6 m/S 734 mmHg 85%
    06:00 -1°C° 0.2 mm 6 m/S 735 mmHg 85%
    07:00 -1°C° 0.2 mm 6 m/S 735 mmHg 85%
    08:00 -1°C° 0.2 mm 6 m/S 735 mmHg 84%
    09:00 -1°C° 0.2 mm 7 m/S 735 mmHg 83%
    10:00 -1°C° 0.2 mm 7 m/S 735 mmHg 82%
    11:00 -1°C° 0.2 mm 7 m/S 735 mmHg 81%
    12:00 0°C° 0.2 mm 7 m/S 735 mmHg 79%
    13:00 0°C° 0.2 mm 7 m/S 735 mmHg 77%
    14:00 +1°C° 0.1 mm 6 m/S 735 mmHg 79%
    15:00 -1°C° 0.1 mm 6 m/S 735 mmHg 80%
    16:00 0°C° 0.1 mm 5 m/S 735 mmHg 81%
    17:00 0°C° 0.1 mm 5 m/S 736 mmHg 82%
    18:00 0°C° 0.1 mm 5 m/S 736 mmHg 84%
    19:00 0°C° 0.1 mm 5 m/S 736 mmHg 85%
    20:00 -1°C° 0.2 mm 5 m/S 736 mmHg 86%
    21:00 -1°C° 0.2 mm 5 m/S 736 mmHg 87%
    22:00 -1°C° 0.2 mm 5 m/S 736 mmHg 88%
    23:00 -1°C° 0.3 mm 5 m/S 736 mmHg 88%

    Morgen, 12 Dezember, Mittwoch

    Zeit Temperatur Niederschläge Wind Luftdruck Luftfeuchtigkeit
    00:00 -1°C° 0.3 mm 5 m/S 736 mmHg 88%
    01:00 -1°C° 0.3 mm 5 m/S 737 mmHg 88%
    02:00 -1°C° 0.4 mm 4 m/S 737 mmHg 88%
    03:00 -1°C° 0.4 mm 4 m/S 737 mmHg 89%
    04:00 -1°C° 0.4 mm 4 m/S 737 mmHg 89%
    05:00 -1°C° 0.4 mm 4 m/S 737 mmHg 90%
    06:00 -2°C° 0.4 mm 4 m/S 737 mmHg 90%
    07:00 -2°C° 0.4 mm 4 m/S 737 mmHg 91%
    08:00 -1°C° 0.3 mm 3 m/S 737 mmHg 91%
    09:00 0°C° 0.3 mm 3 m/S 737 mmHg 91%
    10:00 0°C° 0.3 mm 3 m/S 737 mmHg 91%
    11:00 0°C° 0.1 mm 3 m/S 737 mmHg 90%
    12:00 +1°C° 0.1 mm 3 m/S 737 mmHg 89%
    13:00 +2°C° 0.1 mm 2 m/S 737 mmHg 88%
    14:00 +2°C° 0.1 mm 2 m/S 737 mmHg 89%
    15:00 +1°C° 0.1 mm 2 m/S 737 mmHg 89%
    16:00 +2°C° 0.1 mm 1 m/S 737 mmHg 90%
    17:00 +1°C° 0.1 mm 1 m/S 737 mmHg 91%
    18:00 +1°C° 0.1 mm 1 m/S 737 mmHg 92%
    19:00 +1°C° 0.1 mm 1 m/S 737 mmHg 93%
    20:00 0°C° 0.1 mm 1 m/S 737 mmHg 93%
    21:00 0°C° 0.1 mm 1 m/S 737 mmHg 93%
    22:00 0°C° 0.1 mm 1 m/S 737 mmHg 93%
    23:00 0°C° 0 mm 1 m/S 737 mmHg 93%

    übermorgen, 13 Dezember, Donnerstag

    Zeit Temperatur Niederschläge Wind Luftdruck Luftfeuchtigkeit
    00:00 -1°C° 0 mm 1 m/S 737 mmHg 93%
    01:00 -1°C° 0 mm 1 m/S 737 mmHg 93%
    02:00 -1°C° 0 mm 1 m/S 737 mmHg 92%
    03:00 -4°C° 0 mm 2 m/S 736 mmHg 91%
    04:00 -4°C° 0 mm 2 m/S 736 mmHg 91%
    05:00 -4°C° 0 mm 2 m/S 736 mmHg 90%
    06:00 -5°C° 0 mm 2 m/S 736 mmHg 90%
    07:00 -5°C° 0 mm 2 m/S 736 mmHg 89%
    08:00 -4°C° 0 mm 2 m/S 735 mmHg 86%
    09:00 -5°C° 0 mm 3 m/S 735 mmHg 84%
    10:00 -4°C° 0 mm 3 m/S 735 mmHg 81%
    11:00 -3°C° 0 mm 4 m/S 735 mmHg 79%
    12:00 -2°C° 0 mm 4 m/S 734 mmHg 78%
    13:00 -2°C° 0 mm 4 m/S 734 mmHg 76%
    14:00 -2°C° 0 mm 4 m/S 734 mmHg 79%
    15:00 -2°C° 0 mm 3 m/S 733 mmHg 82%
    16:00 -2°C° 0 mm 3 m/S 733 mmHg 85%
    17:00 -4°C° 0 mm 3 m/S 734 mmHg 86%
    18:00 -4°C° 0 mm 3 m/S 734 mmHg 87%
    19:00 -5°C° 0 mm 3 m/S 734 mmHg 88%
    20:00 -5°C° 0 mm 3 m/S 734 mmHg 88%
    21:00 -5°C° 0 mm 3 m/S 735 mmHg 88%
    22:00 -4°C° 0 mm 2 m/S 735 mmHg 88%
    23:00 -4°C° 0 mm 2 m/S 735 mmHg 89%

    14 Dezember, Freitag

    Zeit Temperatur Niederschläge Wind Luftdruck Luftfeuchtigkeit
    00:00 -4°C° 0 mm 2 m/S 735 mmHg 89%
    01:00 -5°C° 0 mm 2 m/S 735 mmHg 89%
    02:00 -5°C° 0 mm 2 m/S 735 mmHg 89%
    03:00 -5°C° 0 mm 2 m/S 735 mmHg 89%
    04:00 -5°C° 0 mm 2 m/S 735 mmHg 89%
    05:00 -5°C° 0 mm 2 m/S 735 mmHg 89%
    06:00 -5°C° 0 mm 2 m/S 735 mmHg 89%
    07:00 -3°C° 0 mm 1 m/S 735 mmHg 89%
    08:00 -4°C° 0 mm 2 m/S 735 mmHg 86%
    09:00 -4°C° 0 mm 2 m/S 735 mmHg 83%
    10:00 -3°C° 0 mm 2 m/S 735 mmHg 80%
    11:00 -2°C° 0 mm 2 m/S 735 mmHg 79%
    12:00 -1°C° 0 mm 2 m/S 735 mmHg 77%
    13:00 +1°C° 0 mm 2 m/S 735 mmHg 75%
    14:00 -1°C° 0 mm 2 m/S 735 mmHg 79%
    15:00 0°C° 0 mm 1 m/S 735 mmHg 84%
    16:00 0°C° 0 mm 1 m/S 735 mmHg 88%
    17:00 -1°C° 0 mm 1 m/S 736 mmHg 89%
    18:00 -2°C° 0 mm 1 m/S 736 mmHg 90%
    19:00 -2°C° 0 mm 1 m/S 737 mmHg 92%
    20:00 -2°C° 0 mm 1 m/S 737 mmHg 92%
    21:00 -2°C° 0 mm 1 m/S 738 mmHg 91%
    22:00 -3°C° 0 mm 1 m/S 738 mmHg 91%
    23:00 -3°C° 0 mm 1 m/S 738 mmHg 91%

    15 Dezember, Samstag

    Zeit Temperatur Niederschläge Wind Luftdruck Luftfeuchtigkeit
    00:00 -4°C° 0 mm 0 m/S 738 mmHg 91%
    01:00 -4°C° 0 mm 0 m/S 739 mmHg 91%
    02:00 -4°C° 0 mm 0 m/S 739 mmHg 90%
    03:00 -3°C° 0 mm 0 m/S 739 mmHg 89%
    04:00 -3°C° 0 mm 0 m/S 739 mmHg 89%
    05:00 -3°C° 0 mm 0 m/S 740 mmHg 89%
    06:00 -4°C° 0 mm 0 m/S 740 mmHg 89%
    07:00 -3°C° 0 mm 1 m/S 740 mmHg 89%
    08:00 -3°C° 0 mm 0 m/S 740 mmHg 86%
    09:00 -3°C° 0 mm 0 m/S 740 mmHg 84%
    10:00 -2°C° 0 mm 0 m/S 741 mmHg 81%
    11:00 -1°C° 0 mm 0 m/S 740 mmHg 78%
    12:00 0°C° 0 mm 0 m/S 740 mmHg 76%
    13:00 0°C° 0 mm 0 m/S 740 mmHg 73%
    14:00 0°C° 0 mm 0 m/S 740 mmHg 77%
    15:00 -1°C° 0 mm 0 m/S 740 mmHg 81%
    16:00 -1°C° 0 mm 1 m/S 740 mmHg 85%
    17:00 -1°C° 0 mm 1 m/S 741 mmHg 86%
    18:00 -2°C° 0 mm 1 m/S 741 mmHg 87%
    19:00 -2°C° 0 mm 1 m/S 741 mmHg 88%
    20:00 -2°C° 0 mm 1 m/S 741 mmHg 88%
    21:00 -2°C° 0 mm 1 m/S 741 mmHg 87%
    22:00 -3°C° 0 mm 1 m/S 741 mmHg 86%
    23:00 -3°C° 0 mm 1 m/S 740 mmHg 86%

    16 Dezember, Sonntag

    Zeit Temperatur Niederschläge Wind Luftdruck Luftfeuchtigkeit
    00:00 -3°C° 0 mm 1 m/S 740 mmHg 85%
    01:00 -3°C° 0 mm 1 m/S 740 mmHg 84%
    02:00 -3°C° 0 mm 1 m/S 739 mmHg 83%
    03:00 -3°C° 0 mm 1 m/S 739 mmHg 81%
    04:00 -2°C° 0 mm 1 m/S 739 mmHg 80%
    05:00 -2°C° 0 mm 1 m/S 738 mmHg 77%
    06:00 -1°C° 0 mm 1 m/S 738 mmHg 75%
    07:00 -2°C° 0 mm 2 m/S 738 mmHg 73%
    08:00 -2°C° 0 mm 2 m/S 738 mmHg 73%
    09:00 -1°C° 0 mm 2 m/S 738 mmHg 72%
    10:00 -1°C° 0 mm 2 m/S 737 mmHg 72%
    11:00 +1°C° 0.3 mm 2 m/S 737 mmHg 75%
    12:00 +1°C° 0.3 mm 2 m/S 736 mmHg 78%
    13:00 +2°C° 0.3 mm 2 m/S 736 mmHg 81%
    14:00 +2°C° 0.5 mm 2 m/S 735 mmHg 84%
    15:00 +2°C° 0.5 mm 2 m/S 735 mmHg 87%
    16:00 +2°C° 0.5 mm 2 m/S 735 mmHg 91%
    17:00 +3°C° 0.8 mm 1 m/S 735 mmHg 92%
    18:00 +3°C° 0.8 mm 1 m/S 735 mmHg 93%
    19:00 +4°C° 0.8 mm 1 m/S 734 mmHg 94%
    20:00 +4°C° 0.4 mm 1 m/S 734 mmHg 94%
    21:00 +4°C° 0.4 mm 1 m/S 734 mmHg 95%
    22:00 +5°C° 0.4 mm 1 m/S 734 mmHg 95%
    23:00 +5°C° 0.3 mm 1 m/S 734 mmHg 96%
    Mehr zeigen